DCM228 EINN-EGPF

Flight info

Callsign DCM228
Flight time N/A
Altitude 39000
Route PELIG DCT ROTEV DCT GOTNA/N0430F250 P600 BLACA
Aircraft CL60/M-SBDE1E2E3FGHIJ1J4J5J7M3RWXYZ/LB1V1D1

Departure

Time 2026-04-29 19:26
Airport Shannon Airport (EINN)

Arrival

Time N/A
Airport Glasgow Airport (EGPF)
Time Latitude Longitude Altitude Speed Heading
2026-04-29 18:57 52.69228 -8.91342 15 ft 0 kts 220°
2026-04-29 19:18 52.69222 -8.91351 15 ft 3 kts 237°
2026-04-29 19:18 52.69244 -8.91430 15 ft 8 kts 296°
2026-04-29 19:18 52.69278 -8.91528 15 ft 11 kts 316°
2026-04-29 19:19 52.69327 -8.91595 15 ft 6 kts 328°
2026-04-29 19:19 52.69350 -8.91631 15 ft 0 kts 309°
2026-04-29 19:19 52.69350 -8.91632 15 ft 0 kts 309°
2026-04-29 19:20 52.69373 -8.91675 15 ft 8 kts 319°
2026-04-29 19:20 52.69405 -8.91770 16 ft 11 kts 294°
2026-04-29 19:20 52.69442 -8.91899 16 ft 13 kts 285°
2026-04-29 19:20 52.69461 -8.92035 16 ft 7 kts 283°
2026-04-29 19:21 52.69473 -8.92114 17 ft 9 kts 285°
2026-04-29 19:21 52.69494 -8.92217 17 ft 10 kts 291°
2026-04-29 19:21 52.69533 -8.92343 18 ft 13 kts 304°
2026-04-29 19:21 52.69591 -8.92446 18 ft 11 kts 316°
2026-04-29 19:22 52.69655 -8.92549 19 ft 13 kts 315°
2026-04-29 19:22 52.69723 -8.92659 20 ft 11 kts 316°
2026-04-29 19:22 52.69776 -8.92746 21 ft 11 kts 314°
2026-04-29 19:22 52.69802 -8.92788 21 ft 4 kts 315°
2026-04-29 19:23 52.69821 -8.92818 21 ft 5 kts 315°
2026-04-29 19:23 52.69852 -8.92868 22 ft 4 kts 315°
2026-04-29 19:23 52.69862 -8.92885 22 ft 2 kts 315°
2026-04-29 19:23 52.69865 -8.92889 22 ft 0 kts 315°
2026-04-29 19:24 52.69865 -8.92890 22 ft 1 kts 315°
2026-04-29 19:24 52.69872 -8.92901 22 ft 0 kts 315°
2026-04-29 19:24 52.69888 -8.92926 22 ft 6 kts 316°
2026-04-29 19:24 52.69935 -8.92984 22 ft 9 kts 342°
2026-04-29 19:25 52.69968 -8.92971 22 ft 0 kts 50°
2026-04-29 19:26 52.70069 -8.92755 20 ft 71 kts 51°
2026-04-29 19:26 52.70593 -8.91662 114 ft 154 kts 58°
2026-04-29 19:26 52.71184 -8.90294 1145 ft 146 kts 58°
2026-04-29 19:27 52.71772 -8.89081 1876 ft 132 kts 41°
2026-04-29 19:27 52.72499 -8.87993 1967 ft 148 kts 48°
2026-04-29 19:27 52.73200 -8.86743 2220 ft 150 kts 54°
2026-04-29 19:27 52.73861 -8.85406 2549 ft 148 kts 55°
2026-04-29 19:28 52.74729 -8.84439 2734 ft 159 kts 20°
2026-04-29 19:28 52.75884 -8.84690 2715 ft 188 kts 338°
2026-04-29 19:28 52.76742 -8.86431 2905 ft 197 kts 291°
2026-04-29 19:28 52.76794 -8.88628 3199 ft 195 kts 251°
2026-04-29 19:29 52.76259 -8.90710 3368 ft 198 kts 241°
2026-04-29 19:29 52.75705 -8.92775 3648 ft 197 kts 242°
2026-04-29 19:29 52.75162 -8.94854 3879 ft 199 kts 242°
2026-04-29 19:29 52.74609 -8.96976 4007 ft 206 kts 243°
2026-04-29 19:30 52.74028 -8.99171 3980 ft 202 kts 243°
2026-04-29 19:30 52.73472 -9.01301 4019 ft 197 kts 243°
2026-04-29 19:30 52.72941 -9.03377 4011 ft 195 kts 243°
2026-04-29 19:30 52.72346 -9.05327 3922 ft 190 kts 226°
2026-04-29 19:31 52.71334 -9.06554 3745 ft 170 kts 194°
2026-04-29 19:31 52.70193 -9.07013 3397 ft 168 kts 182°
2026-04-29 19:31 52.69056 -9.06924 2921 ft 165 kts 163°
2026-04-29 19:31 52.67938 -9.06448 2235 ft 168 kts 159°
2026-04-29 19:32 52.67137 -9.05287 1800 ft 152 kts 113°
2026-04-29 19:32 52.66732 -9.03763 1519 ft 142 kts 112°
2026-04-29 19:32 52.66433 -9.02273 1211 ft 124 kts 98°
2026-04-29 19:32 52.66559 -9.00954 997 ft 117 kts 74°
2026-04-29 19:33 52.66895 -8.99706 846 ft 119 kts 67°
2026-04-29 19:33 52.67340 -8.98508 623 ft 125 kts 58°
2026-04-29 19:33 52.67890 -8.97393 457 ft 126 kts 54°
2026-04-29 19:33 52.68436 -8.96238 306 ft 128 kts 56°
2026-04-29 19:34 52.68984 -8.95078 183 ft 129 kts 55°
2026-04-29 19:34 52.69525 -8.93910 48 ft 127 kts 55°
2026-04-29 19:34 52.69991 -8.92907 22 ft 81 kts 52°
2026-04-29 19:34 52.70235 -8.92398 18 ft 39 kts 54°
2026-04-29 19:35 52.70395 -8.92060 18 ft 35 kts 53°
2026-04-29 19:35 52.70542 -8.91748 18 ft 32 kts 52°
2026-04-29 19:35 52.70678 -8.91459 18 ft 34 kts 52°
2026-04-29 19:35 52.70824 -8.91144 19 ft 35 kts 53°
2026-04-29 19:36 52.70952 -8.90877 20 ft 15 kts 51°
2026-04-29 19:36 52.70942 -8.90751 20 ft 12 kts 144°
2026-04-29 19:36 52.70874 -8.90673 20 ft 11 kts 152°
2026-04-29 19:36 52.70863 -8.90666 20 ft 0 kts 163°
2026-04-29 19:38 52.70835 -8.90660 19 ft 8 kts 182°
2026-04-29 19:38 52.70757 -8.90697 19 ft 14 kts 198°
2026-04-29 19:38 52.70656 -8.90755 18 ft 16 kts 198°
2026-04-29 19:38 52.70541 -8.90819 17 ft 17 kts 198°
2026-04-29 19:39 52.70419 -8.90884 16 ft 18 kts 198°
2026-04-29 19:39 52.70295 -8.90951 16 ft 18 kts 198°
2026-04-29 19:39 52.70171 -8.91018 15 ft 18 kts 199°
2026-04-29 19:39 52.70047 -8.91087 15 ft 18 kts 198°
2026-04-29 19:40 52.69924 -8.91154 15 ft 18 kts 200°
2026-04-29 19:40 52.69803 -8.91225 14 ft 18 kts 199°
2026-04-29 19:40 52.69685 -8.91292 14 ft 18 kts 199°
2026-04-29 19:40 52.69566 -8.91359 15 ft 17 kts 198°
2026-04-29 19:41 52.69449 -8.91421 15 ft 17 kts 198°
2026-04-29 19:41 52.69338 -8.91483 15 ft 16 kts 197°
2026-04-29 19:41 52.69259 -8.91505 15 ft 7 kts 134°
2026-04-29 19:41 52.69244 -8.91425 15 ft 7 kts 111°
2026-04-29 19:42 52.69235 -8.91349 15 ft 6 kts 112°
2026-04-29 19:42 52.69226 -8.91346 15 ft 0 kts 218°